Tracking 23752 objects as of 23-Oct-2021
HD Live streaming from Space Station
objects crossing your sky now

COSMOS 1375 DEB

Track COSMOS 1375 DEB now!
10-day predictions


NORAD ID: 17794
Int'l Code: 1982-055AL
Perigee: 896.8 km
Apogee: 951.2 km
Inclination: 65.8 °
Period: 103.3 minutes
Semi major axis: 7294 km
RCS: 0.0068 m2 (small)
Launch date: June 6, 1982
Source: Commonwealth of Independent States (former USSR) (CIS)
Launch site: PLESETSK MISSILE AND SPACE COMPLEX (PKMTR)

Note: This is SATELLITE DEBRIS
aabbcc
Your satellite tracking list
Your tracking list is empty




NASA's NSSDC Master Catalog

Two Line Element Set (TLE):
1 17794U 82055AL  21296.43057393  .00000553  00000-0  48426-3 0  9992
2 17794  65.8205 301.5273 0037274  94.5159 266.0172 13.93371239815327
Source of the keplerian elements: AFSPC